TimeCST,TemperatureF,Dew PointF,Humidity,Sea Level PressureIn,VisibilityMPH,Wind Direction,Wind SpeedMPH,Gust SpeedMPH,PrecipitationIn,Events,Conditions,WindDirDegrees,DateUTC
12:54 AM,15.1,12.0,88,29.98,10.0,Calm,Calm,-,N/A,,Overcast,0,2012-12-29 06:54:00
1:54 AM,16.0,14.0,92,29.99,10.0,NW,3.5,-,N/A,,Overcast,320,2012-12-29 07:54:00
2:54 AM,17.1,14.0,88,29.99,10.0,Calm,Calm,-,N/A,,Overcast,0,2012-12-29 08:54:00
3:46 AM,17.6,12.2,79,29.91,10.0,Calm,Calm,-,0.00,,Overcast,0,2012-12-29 09:46:00
3:54 AM,16.0,12.9,88,29.97,10.0,WNW,3.5,-,0.00,,Overcast,290,2012-12-29 09:54:00
4:54 AM,16.0,12.9,88,29.98,4.0,Calm,Calm,-,0.00,Snow,Light Snow,0,2012-12-29 10:54:00
6:54 AM,10.9,8.1,88,29.99,10.0,Calm,Calm,-,N/A,,Mostly Cloudy,0,2012-12-29 12:54:00
7:54 AM,12.0,10.0,92,29.99,10.0,Calm,Calm,-,N/A,,Overcast,0,2012-12-29 13:54:00
8:20 AM,12.2,10.4,92,29.92,9.0,Calm,Calm,-,0.00,,Overcast,0,2012-12-29 14:20:00
8:54 AM,15.1,12.9,91,30.00,10.0,NNW,3.5,-,0.00,,Overcast,330,2012-12-29 14:54:00
9:54 AM,19.0,16.0,88,30.00,10.0,WNW,3.5,-,N/A,,Overcast,300,2012-12-29 15:54:00
10:54 AM,21.9,17.1,82,29.99,9.0,NNW,8.1,-,N/A,,Overcast,330,2012-12-29 16:54:00
11:54 AM,25.0,17.1,72,29.97,10.0,NNW,5.8,-,N/A,,Overcast,330,2012-12-29 17:54:00
12:54 PM,25.0,17.1,72,29.96,10.0,North,3.5,-,N/A,,Overcast,350,2012-12-29 18:54:00
1:54 PM,25.0,16.0,69,29.97,10.0,West,8.1,-,N/A,,Overcast,280,2012-12-29 19:54:00
2:54 PM,25.0,17.1,72,29.98,10.0,NW,5.8,-,0.00,,Overcast,310,2012-12-29 20:54:00
3:42 PM,24.8,19.4,80,29.93,1.8,NW,3.5,-,0.00,Snow,Light Snow,310,2012-12-29 21:42:00
3:54 PM,24.1,19.0,81,30.00,3.0,NW,4.6,-,0.00,Snow,Light Snow,310,2012-12-29 21:54:00
4:05 PM,23.0,19.4,86,29.93,6.0,Calm,Calm,-,0.00,,Overcast,0,2012-12-29 22:05:00
5:54 PM,23.0,15.1,72,30.03,10.0,West,5.8,-,N/A,,Overcast,270,2012-12-29 23:54:00
6:54 PM,23.0,14.0,68,30.04,10.0,NW,3.5,-,N/A,,Overcast,310,2012-12-30 00:54:00
7:54 PM,23.0,15.1,72,30.05,10.0,West,3.5,-,N/A,,Overcast,280,2012-12-30 01:54:00
8:54 PM,21.9,15.1,75,30.06,10.0,West,8.1,-,N/A,,Overcast,280,2012-12-30 02:54:00
9:54 PM,21.9,14.0,72,30.06,10.0,West,8.1,-,N/A,,Overcast,280,2012-12-30 03:54:00
10:22 PM,21.2,14.0,74,30.00,10.0,West,5.8,-,N/A,,Overcast,270,2012-12-30 04:22:00
10:54 PM,21.0,14.0,74,30.06,10.0,West,3.5,-,N/A,,Overcast,270,2012-12-30 04:54:00
11:54 PM,19.9,14.0,78,30.07,10.0,WSW,3.5,-,N/A,,Overcast,240,2012-12-30 05:54:00